WZZ6BD LIRF-LHBP

Flight info

Callsign WZZ6BD
Flight time N/A
Altitude 32000
Route OKUNO DCT ATRUP DCT SAL/N0420F330 DCT KOPRY DCT ULZAK
Aircraft A21N/M-SDE2E3FGHIJ1RWXY/LB1

Departure

Time 2026-02-19 13:46
Airport Rome–Fiumicino Leonardo da Vinci International Airport (LIRF)

Arrival

Time N/A
Airport Budapest Liszt Ferenc International Airport (LHBP)
Time Latitude Longitude Altitude Speed Heading
2026-02-19 13:09 41.79595 12.25753 20 ft 0 kts 116°
2026-02-19 13:36 41.79606 12.25721 21 ft 3 kts 116°
2026-02-19 13:36 41.79613 12.25698 24 ft 3 kts 93°
2026-02-19 13:37 41.79611 12.25681 24 ft 3 kts 36°
2026-02-19 13:37 41.79605 12.25676 20 ft 1 kts 26°
2026-02-19 13:37 41.79616 12.25683 20 ft 3 kts 26°
2026-02-19 13:37 41.79634 12.25695 20 ft 3 kts 26°
2026-02-19 13:38 41.79649 12.25705 20 ft 1 kts 26°
2026-02-19 13:38 41.79650 12.25706 20 ft 1 kts 26°
2026-02-19 13:41 41.79657 12.25710 20 ft 3 kts 26°
2026-02-19 13:41 41.79684 12.25728 20 ft 6 kts 26°
2026-02-19 13:41 41.79724 12.25754 20 ft 7 kts 26°
2026-02-19 13:41 41.79778 12.25789 20 ft 10 kts 25°
2026-02-19 13:42 41.79851 12.25827 20 ft 13 kts 20°
2026-02-19 13:42 41.79942 12.25871 20 ft 15 kts 19°
2026-02-19 13:42 41.80050 12.25932 20 ft 19 kts 25°
2026-02-19 13:42 41.80176 12.26010 22 ft 21 kts 25°
2026-02-19 13:43 41.80308 12.26092 22 ft 21 kts 25°
2026-02-19 13:43 41.80442 12.26171 20 ft 18 kts 10°
2026-02-19 13:43 41.80538 12.26274 20 ft 19 kts 69°
2026-02-19 13:43 41.80585 12.26442 20 ft 20 kts 69°
2026-02-19 13:44 41.80634 12.26618 20 ft 21 kts 69°
2026-02-19 13:44 41.80739 12.26993 20 ft 22 kts 70°
2026-02-19 13:44 41.80786 12.27124 22 ft 14 kts 31°
2026-02-19 13:45 41.80885 12.27109 21 ft 15 kts 339°
2026-02-19 13:45 41.80981 12.27048 20 ft 14 kts 297°
2026-02-19 13:45 41.80970 12.26965 20 ft 9 kts 248°
2026-02-19 13:45 41.80935 12.26843 19 ft 34 kts 249°
2026-02-19 13:46 41.80766 12.26227 24 ft 105 kts 250°
2026-02-19 13:46 41.80432 12.25037 34 ft 161 kts 249°
2026-02-19 13:46 41.80070 12.23645 728 ft 150 kts 248°
2026-02-19 13:46 41.79717 12.22340 1497 ft 146 kts 251°
2026-02-19 13:47 41.79313 12.21116 2245 ft 143 kts 240°
2026-02-19 13:47 41.78588 12.20186 2825 ft 147 kts 223°
2026-02-19 13:47 41.77780 12.19317 3315 ft 153 kts 225°
2026-02-19 13:47 41.76929 12.18362 3712 ft 167 kts 224°
2026-02-19 13:48 41.75979 12.17334 4133 ft 185 kts 219°
2026-02-19 13:48 41.73178 12.16769 4888 ft 234 kts 183°
2026-02-19 13:48 41.71482 12.16882 5316 ft 253 kts 183°
2026-02-19 13:49 41.69698 12.16987 6005 ft 260 kts 183°
2026-02-19 13:49 41.67874 12.17088 6777 ft 263 kts 183°
2026-02-19 13:49 41.66042 12.17185 7575 ft 264 kts 183°
2026-02-19 13:49 41.64196 12.17279 8387 ft 266 kts 183°
2026-02-19 13:50 41.62341 12.17371 9186 ft 267 kts 183°
2026-02-19 13:50 41.60493 12.17460 9890 ft 272 kts 184°
2026-02-19 13:50 41.58544 12.17548 10219 ft 289 kts 183°
2026-02-19 13:50 41.56475 12.17780 10547 ft 309 kts 173°
2026-02-19 13:51 41.54426 12.18868 11103 ft 326 kts 154°
2026-02-19 13:51 41.52552 12.20624 11809 ft 332 kts 149°
2026-02-19 13:51 41.50696 12.22486 12516 ft 335 kts 149°
2026-02-19 13:51 41.48915 12.24529 13205 ft 344 kts 137°
2026-02-19 13:52 41.47623 12.27282 13825 ft 360 kts 116°
2026-02-19 13:52 41.47397 12.34047 14956 ft 386 kts 76°
2026-02-19 13:52 41.48535 12.37330 15502 ft 394 kts 56°
2026-02-19 13:53 41.50361 12.40078 16059 ft 399 kts 40°
2026-02-19 13:53 41.52626 12.42253 16566 ft 401 kts 25°
2026-02-19 13:53 41.55204 12.43671 17106 ft 402 kts 17°
2026-02-19 13:53 41.57839 12.45018 17628 ft 407 kts 18°
2026-02-19 13:54 41.60439 12.46456 18119 ft 412 kts 20°
2026-02-19 13:54 41.63074 12.48018 18576 ft 417 kts 21°
2026-02-19 13:54 41.65729 12.49636 19025 ft 421 kts 22°
2026-02-19 13:54 41.68409 12.51294 19465 ft 425 kts 22°
2026-02-19 13:55 41.71113 12.52974 19887 ft 429 kts 22°
2026-02-19 13:55 41.73828 12.54667 20269 ft 434 kts 22°
2026-02-19 13:55 41.76578 12.56380 20672 ft 438 kts 22°
2026-02-19 13:55 41.79354 12.58115 21076 ft 442 kts 23°
2026-02-19 13:56 41.82032 12.60208 21453 ft 449 kts 33°
2026-02-19 13:56 41.87185 12.65087 22255 ft 458 kts 34°
2026-02-19 13:56 41.89807 12.67574 22766 ft 462 kts 34°
2026-02-19 13:57 41.92446 12.70082 23228 ft 466 kts 34°
2026-02-19 13:57 41.95112 12.72599 23613 ft 470 kts 34°
2026-02-19 13:57 41.97771 12.75101 23994 ft 473 kts 33°
2026-02-19 13:57 42.00470 12.77641 24372 ft 476 kts 33°
2026-02-19 13:58 42.03090 12.80396 24734 ft 479 kts 44°
2026-02-19 13:58 42.05180 12.83887 25092 ft 479 kts 61°
2026-02-19 13:58 42.06837 12.87778 25437 ft 481 kts 64°
2026-02-19 13:58 42.08454 12.91745 25779 ft 483 kts 64°
2026-02-19 13:59 42.10088 12.95721 26118 ft 487 kts 64°
2026-02-19 13:59 42.11697 12.99749 26443 ft 490 kts 65°
2026-02-19 13:59 42.13291 13.03831 26794 ft 494 kts 65°
2026-02-19 13:59 42.14880 13.07896 27108 ft 498 kts 65°
2026-02-19 14:00 42.16495 13.12030 27490 ft 502 kts 65°
2026-02-19 14:00 42.19772 13.20435 28082 ft 508 kts 65°
2026-02-19 14:00 42.21421 13.24677 28372 ft 511 kts 64°
2026-02-19 14:01 42.23079 13.28949 28653 ft 515 kts 65°
2026-02-19 14:01 42.24749 13.33254 28867 ft 518 kts 65°
2026-02-19 14:01 42.26419 13.37567 29151 ft 520 kts 65°
2026-02-19 14:01 42.28096 13.41911 29475 ft 521 kts 65°
2026-02-19 14:02 42.29774 13.46261 29677 ft 523 kts 64°
2026-02-19 14:02 42.31437 13.50578 29887 ft 525 kts 64°
2026-02-19 14:02 42.32719 13.53900 30092 ft 526 kts 64°
2026-02-19 14:02 42.34498 13.57832 30329 ft 529 kts 53°
2026-02-19 14:03 42.36971 13.61494 30616 ft 526 kts 39°
2026-02-19 14:03 42.39859 13.64478 31014 ft 520 kts 32°
2026-02-19 14:03 42.42825 13.67277 31349 ft 519 kts 31°
2026-02-19 14:03 42.45777 13.70053 31657 ft 515 kts 31°
2026-02-19 14:04 42.54541 13.78457 32381 ft 515 kts 32°
2026-02-19 14:04 42.57460 13.81276 32582 ft 515 kts 32°
2026-02-19 14:05 42.63270 13.86906 32609 ft 512 kts 32°
2026-02-19 14:05 42.69079 13.92543 32591 ft 513 kts 32°
2026-02-19 14:06 42.74887 13.98181 32587 ft 514 kts 32°
2026-02-19 14:06 42.80703 14.03862 32586 ft 514 kts 32°
2026-02-19 14:07 42.86530 14.09540 32585 ft 515 kts 32°
2026-02-19 14:07 42.92351 14.15237 32586 ft 516 kts 32°
2026-02-19 14:08 43.01089 14.23824 32583 ft 516 kts 32°
2026-02-19 14:09 43.06915 14.29569 32595 ft 516 kts 32°
2026-02-19 14:09 43.12731 14.35311 32597 ft 516 kts 32°
2026-02-19 14:10 43.18543 14.41060 32607 ft 515 kts 33°
2026-02-19 14:10 43.24358 14.46822 32606 ft 515 kts 33°
2026-02-19 14:11 43.30113 14.52541 32620 ft 514 kts 33°
2026-02-19 14:11 43.35890 14.58301 32624 ft 513 kts 32°
2026-02-19 14:12 43.41672 14.64078 32615 ft 513 kts 32°
2026-02-19 14:12 43.50313 14.72741 32629 ft 512 kts 33°
2026-02-19 14:13 43.56083 14.78543 32636 ft 512 kts 32°
2026-02-19 14:13 43.61829 14.84330 32633 ft 511 kts 33°
2026-02-19 14:14 43.67534 14.90096 32645 ft 511 kts 33°
2026-02-19 14:14 43.73266 14.95902 32658 ft 511 kts 33°
2026-02-19 14:15 43.78994 15.01719 32648 ft 510 kts 32°
2026-02-19 14:15 43.84715 15.07546 32661 ft 510 kts 33°
2026-02-19 14:16 43.93296 15.16249 32677 ft 508 kts 29°
2026-02-19 14:17 43.99418 15.21040 32694 ft 504 kts 23°
2026-02-19 14:17 44.05602 15.25622 32699 ft 504 kts 23°
2026-02-19 14:18 44.11775 15.30231 32699 ft 504 kts 23°
2026-02-19 14:18 44.17911 15.34841 32701 ft 504 kts 23°
2026-02-19 14:19 44.24111 15.39507 32703 ft 503 kts 23°
2026-02-19 14:19 44.30258 15.44141 32701 ft 502 kts 23°
2026-02-19 14:20 44.42461 15.53374 32688 ft 499 kts 23°
2026-02-19 14:21 44.48560 15.58003 32691 ft 498 kts 23°
2026-02-19 14:21 44.54639 15.62630 32689 ft 496 kts 23°
2026-02-19 14:22 44.60699 15.67257 32678 ft 495 kts 23°
2026-02-19 14:22 44.66755 15.71892 32663 ft 495 kts 23°
2026-02-19 14:23 44.72790 15.76517 32650 ft 494 kts 23°
2026-02-19 14:23 44.78825 15.81155 32635 ft 494 kts 24°
2026-02-19 14:24 44.84872 15.85815 32650 ft 496 kts 24°
2026-02-19 14:24 44.93936 15.92816 32634 ft 498 kts 24°
2026-02-19 14:25 45.00022 15.97541 32628 ft 499 kts 24°
2026-02-19 14:25 45.06086 16.02251 32622 ft 498 kts 24°
2026-02-19 14:26 45.12156 16.06979 32631 ft 497 kts 24°
2026-02-19 14:26 45.17188 16.10910 32628 ft 497 kts 23°
2026-02-19 14:27 45.23282 16.15675 32622 ft 497 kts 24°
2026-02-19 14:27 45.29284 16.20382 32628 ft 496 kts 24°
2026-02-19 14:28 45.38329 16.27498 32635 ft 495 kts 24°
2026-02-19 14:29 45.44340 16.32240 32636 ft 494 kts 24°
2026-02-19 14:29 45.50361 16.37007 32648 ft 495 kts 24°
2026-02-19 14:30 45.56368 16.41775 32648 ft 495 kts 24°
2026-02-19 14:30 45.62386 16.46556 32660 ft 494 kts 24°
2026-02-19 14:31 45.68393 16.51344 32659 ft 495 kts 24°
2026-02-19 14:31 45.74412 16.56149 32659 ft 495 kts 24°
2026-02-19 14:32 45.80382 16.60937 32673 ft 495 kts 24°
2026-02-19 14:32 45.89370 16.68176 32683 ft 494 kts 24°
2026-02-19 14:33 45.95366 16.73000 32686 ft 493 kts 24°
2026-02-19 14:33 46.01355 16.77833 32692 ft 493 kts 24°
2026-02-19 14:34 46.07330 16.82663 32692 ft 492 kts 24°
2026-02-19 14:34 46.13289 16.87507 32696 ft 491 kts 24°
2026-02-19 14:35 46.19244 16.92351 32701 ft 491 kts 24°
2026-02-19 14:35 46.24780 16.98185 32699 ft 501 kts 44°
2026-02-19 14:36 46.30937 17.10502 32718 ft 504 kts 54°